Regional Weather Roundup
Issued by NWS

Home | Current Version | Previous Version | Graphics & Text | Print | Product List | Glossary On
Versions: 1 2 3 4 5 6 7 8 9 10 11 12 13 14 15 16 17 18 19 20 21 22 23 24 25 26 27 28 29 30 31 32 33 34 35 36 37 38 39 40 41 42 43 44 45 46 47 48 49 50
000
ASUS43 KLSX 230707
RWRMO

WEATHER SUMMARY FOR MISSOURI
NATIONAL WEATHER SERVICE SPRINGFIELD MO
200 AM CDT WED AUG 23 2017

NOTE: "FAIR" INDICATES FEW OR NO CLOUDS BELOW 12,000 FEET WITH NO
       SIGNIFICANT WEATHER AND/OR OBSTRUCTIONS TO VISIBILITY.
       CURRENT SKY AND/OR WEATHER CONDITIONS ARE NOT AVAILABLE FOR
       CHILLICOTHE AND FARMINGTON.

MOZ001>031-035>038-043-044-053-054-230800-
...NORTHERN AND WESTERN MISSOURI...

CITY           SKY/WX    TMP DP  RH WIND       PRES   REMARKS
KANSAS CTY INT CLEAR     61  53  75 NE5       30.16S
KANSAS C DTWN  CLEAR     63  56  78 CALM      30.15F
LEE`S SUMMIT   CLEAR     61  56  83 MISG      30.16S
ST JOSEPH      CLEAR     54  54 100 N3        30.17S
CHILLICOTHE      N/A     56  55  97 CALM      30.16S
KIRKSVILLE     CLEAR     53  32  44 W3        30.15S

$$
MOZ066>068-077>081-088>096-101>105-230800-
...SOUTHWEST MISSOURI...

CITY           SKY/WX    TMP DP  RH WIND       PRES   REMARKS
SPRINGFIELD    PTCLDY    66  63  90 NE6       30.11F
JOPLIN         PTCLDY    68  66  93 N6        30.12S
BRANSON        CLOUDY    72  66  83 N7        30.11S

$$
MOZ032>034-039>042-045>050-055>058-069>072-230800-
...CENTRAL MISSOURI...

CITY           SKY/WX    TMP DP  RH WIND       PRES   REMARKS
COLUMBIA       CLEAR     61  54  77 NE6       30.12F
JEFFERSON CITY CLEAR     64  56  75 NW3       30.11S
ROLLA          CLEAR     61  57  87 N7        30.12F
SEDALIA        CLEAR     60  58  92 N3        30.15S
WHITEMAN AFB   PTCLDY    58  57  99 N3        30.13S
WARRENSBURG    CLEAR     57  54  88 CALM      30.15S
OSAGE BEACH    PTCLDY    63  58  83 N5        30.13S

$$
MOZ051-052-059>065-230800-
...EAST CENTRAL MISSOURI...

CITY           SKY/WX    TMP DP  RH WIND       PRES   REMARKS
ST LOUIS INTL  CLEAR     65  57  75 N7        30.09S
SPIRIT OF STL  CLEAR     61  59  93 SW3       30.08F
ST CHARLES     CLEAR     64  56  75 N6        30.08S

$$
MOZ072>076-082>087-097>100-106>115-230800-
...SOUTH CENTRAL AND SOUTHEAST MISSOURI...

CITY           SKY/WX    TMP DP  RH WIND       PRES   REMARKS
CAPE GIRARDEAU CLEAR     65  63  93 CALM      30.04F
FARMINGTON     CLEAR     67  60  78 N3        30.09F
POPLAR BLUFF   PTCLDY    67  67 100 N5        30.03F
WEST PLAINS    CLOUDY    69  63  81 N3        30.10F

$$



USA.gov is the U.S. government's official web portal to all federal, state and local government web resources and services.